Barrow, AK

9:33 AM AKDT on June 24, 2018 (GMT -0800)
Wiley Post-Will Rogers Memorial

Weather History for PABR - January, 2017

Change the Weather History Date:

Friday, January 6, 2017

  Actual Average Record
Temperature  
Mean Temperature 8 °F -12 °F  
Max Temperature 27 °F -6 °F 31 °F (1968)
Min Temperature -11 °F -18 °F -50 °F (1943)
Degree Days  
Heating Degree Days 57 77  
Month to date heating degree days 461  
Since 1 July heating degree days 8670  
Cooling Degree Days 0 0  
Month to date cooling degree days 0  
Year to date cooling degree days 0  
Moisture  
Dew Point 5 °F    
Average Humidity 78    
Maximum Humidity 85    
Minimum Humidity 66    
Precipitation  
Precipitation 0.04 in 0.01 in 0.15 in (1937)
Month to date precipitation 0.03  
Year to date precipitation 0.03  
Snow  
Snow 0.00 in 0.10 in 3.00 in (1937)
Month to date snowfall 0.5  
Since 1 July snowfall 24.3  
Snow Depth -    
Sea Level Pressure  
Sea Level Pressure 30.54 in    
Wind  
Wind Speed 17 mph (SSW)    
Max Wind Speed 33 mph    
Max Gust Speed 44 mph    
Visibility 7 miles    
Events Rain , Snow    
T = Trace of Precipitation, MM = Missing Value Source: NWS Daily Summary

Daily Weather History Graph

Daily Weather History Graph

Search for Another Location

Airport or City:

Astronomy

Dec. 31, 1969 Rise Set
Actual Time Sun does not set Sun does not set
Civil Twilight 11:32 AM AKST 3:34 PM AKST
Nautical Twilight 9:37 AM AKST 5:29 PM AKST
Astronomical Twilight 8:13 AM AKST 6:53 PM AKST
Moon 12:48 PM AKST (1/6) 3:12 AM AKST (1/6)
Length of Visible Light 4h 02m
Length of Day
0h 00m
Waxing Gibbous, 62% of the Moon is Illuminated
Jan 6
Waxing Gibbous
Jan 12
Full
Jan 19
Last Quarter
Jan 27
New
Feb 3
First Quarter

Hourly Weather History & Observations

Time (AKST) Temp. Windchill Dew Point Humidity Pressure Visibility Wind Dir Wind Speed Gust Speed Precip Events Conditions
12:53 AM -5.1 °F -15.8 °F -11.0 °F 76% 31.04 in 10.0 mi West 4.6 mph - N/A   Clear
1:53 AM -8.0 °F -19.2 °F -13.0 °F 79% 31.02 in 10.0 mi SW 4.6 mph - N/A   Clear
2:53 AM -11.0 °F -28.8 °F -17.0 °F 75% 31.02 in 10.0 mi South 9.2 mph - N/A   Clear
3:53 AM -9.9 °F -27.5 °F -16.1 °F 74% 30.99 in 10.0 mi South 9.2 mph - N/A   Clear
4:53 AM -9.0 °F -27.4 °F -14.1 °F 79% 30.96 in 10.0 mi South 10.4 mph - N/A   Mostly Cloudy
5:53 AM -8.0 °F -29.6 °F -13.0 °F 79% 30.92 in 10.0 mi SSE 15.0 mph - N/A   Overcast
6:31 AM -6.0 °F -27.7 °F -11.9 °F 75% 30.89 in 4.0 mi SSE 16.1 mph - N/A   Overcast
6:53 AM -5.1 °F -26.6 °F -11.0 °F 76% 30.88 in 8.0 mi SSE 16.1 mph - N/A   Overcast
7:53 AM -4.0 °F -27.6 °F -11.0 °F 72% 30.82 in 10.0 mi SE 20.7 mph - N/A   Overcast
8:53 AM -2.9 °F -27.2 °F -11.0 °F 68% 30.76 in 10.0 mi SE 23.0 mph - N/A   Overcast
9:53 AM -2.0 °F -26.4 °F -9.9 °F 69% 30.69 in 10.0 mi SSE 24.2 mph - N/A   Overcast
10:53 AM -0.9 °F -24.1 °F -9.9 °F 66% 30.66 in 10.0 mi SSE 21.9 mph - N/A   Overcast
11:53 AM -0.9 °F -25.9 °F -9.0 °F 69% 30.59 in 10.0 mi SSE 26.5 mph - N/A   Overcast
12:34 PM 1.0 °F -21.9 °F -8.0 °F 66% 30.54 in 10.0 mi South 23.0 mph - N/A   Overcast
12:53 PM 1.9 °F -20.7 °F -6.0 °F 69% 30.52 in 10.0 mi South 23.0 mph - N/A   Overcast
1:53 PM 5.0 °F -15.2 °F -2.0 °F 73% 30.48 in 10.0 mi South 19.6 mph - N/A   Overcast
2:53 PM 12.0 °F -6.9 °F 5.0 °F 73% 30.43 in 10.0 mi SSW 21.9 mph - N/A   Overcast
3:35 PM 19.0 °F 2.7 °F 14.0 °F 81% 30.39 in 10.0 mi SSW 20.7 mph - N/A   Overcast
3:53 PM 21.9 °F 4.2 °F 17.1 °F 82% 30.38 in 8.0 mi SW 28.8 mph 35.7 mph N/A Snow Blowing Snow
4:21 PM 23.0 °F 6.6 °F 18.0 °F 81% 30.35 in 3.0 mi SW 25.3 mph 34.5 mph 0.00 in Snow Light Snow
4:53 PM 23.0 °F 6.0 °F 19.0 °F 85% 30.34 in 6.0 mi SW 27.6 mph 36.8 mph 0.01 in Snow Blowing Snow
5:51 PM 24.8 °F 8.1 °F 19.4 °F 80% 30.30 in 3.0 mi SW 28.8 mph 40.3 mph 0.01 in Rain , Snow Light Freezing Rain
5:53 PM 24.1 °F 6.6 °F 19.9 °F 84% 30.30 in 3.0 mi SW 31.1 mph 40.3 mph 0.01 in Rain , Snow Light Freezing Rain
6:43 PM 25.0 °F 9.5 °F 21.0 °F 85% 30.27 in 3.0 mi SW 24.2 mph 33.4 mph 0.01 in   Overcast
6:53 PM 25.0 °F 9.2 °F 21.0 °F 85% 30.27 in 4.0 mi SW 25.3 mph 33.4 mph 0.01 in   Overcast
7:22 PM 26.1 °F 8.8 °F 21.9 °F 84% 30.26 in 3.0 mi WSW 33.4 mph 43.7 mph 0.00 in Rain Light Freezing Rain
7:53 PM 26.1 °F 9.1 °F 21.9 °F 84% 30.25 in 3.0 mi WSW 32.2 mph 43.7 mph 0.00 in   Overcast
8:50 PM 26.6 °F 10.6 °F 21.2 °F 80% 30.24 in 3.0 mi WSW 28.8 mph 42.6 mph 0.01 in Rain Light Freezing Rain
8:53 PM 26.1 °F 9.6 °F 21.9 °F 84% 30.24 in 3.0 mi WSW 29.9 mph 38.0 mph 0.01 in Rain Light Freezing Rain
9:15 PM 26.1 °F 9.6 °F 21.9 °F 84% 30.23 in 3.0 mi WSW 29.9 mph 39.1 mph 0.00 in   Overcast
9:53 PM 27.0 °F 11.0 °F 23.0 °F 85% 30.22 in 3.0 mi WSW 28.8 mph 36.8 mph 0.00 in Snow Blowing Snow
10:53 PM 27.0 °F 11.0 °F 23.0 °F 85% 30.20 in 5.0 mi WSW 28.8 mph 39.1 mph N/A Snow Blowing Snow
11:53 PM 27.0 °F 11.3 °F 23.0 °F 85% 30.21 in 6.0 mi WSW 27.6 mph 34.5 mph N/A   Overcast